This is the latest recevied weather packets stored in our database for station/object TA2EE-10. If no packets are shown the sender has not sent any weather packets the latest 10 day(s).
| Time | Temp. | Humidity | Pressure | Rain* | Wind** | Luminosity | Snow |
|---|---|---|---|---|---|---|---|
| 1778122523 | 21.11° C | 33% | 917 hPa | - | - | 0 W/m² | - |
| 1778120401 | 21.67° C | 32% | 917 hPa | - | - | 0 W/m² | - |
| 1778118278 | 21.67° C | 33% | 917 hPa | - | - | 0 W/m² | - |
| 1778116155 | 22.22° C | 32% | 917 hPa | - | - | 0 W/m² | - |
| 1778114032 | 22.78° C | 32% | 917 hPa | - | - | 0 W/m² | - |
| 1778111910 | 23.89° C | 31% | 917 hPa | - | - | 0 W/m² | - |
| 1778109788 | 23.89° C | 30% | 916 hPa | - | - | 0 W/m² | - |
| 1778107666 | 24.44° C | 30% | 916 hPa | - | - | 0 W/m² | - |
| 1778105544 | 23.89° C | 31% | 916 hPa | - | - | 0 W/m² | - |
| 1778103422 | 24.44° C | 31% | 916 hPa | - | - | 0 W/m² | - |
| 1778101300 | 25° C | 32% | 916 hPa | - | - | 0 W/m² | - |
| 1778099177 | 25.56° C | 34% | 916 hPa | - | - | 0 W/m² | - |
| 1778097055 | 25.56° C | 32% | 916 hPa | - | - | 0 W/m² | - |
| 1778094933 | 25.56° C | 28% | 916 hPa | - | - | 0 W/m² | - |
| 1778092811 | 25.56° C | 29% | 916 hPa | - | - | 0 W/m² | - |
| 1778090689 | 26.11° C | 29% | 915 hPa | - | - | 0 W/m² | - |
| 1778090622 | 26.11° C | 28% | 915 hPa | - | - | 0 W/m² | - |
| 1778088500 | 26.67° C | 27% | 915 hPa | - | - | 0 W/m² | - |
| 1778086378 | 27.22° C | 26% | 915 hPa | - | - | 0 W/m² | - |
| 1778084256 | 26.11° C | 26% | 915 hPa | - | - | 0 W/m² | - |
| 1778082134 | 25.56° C | 26% | 914 hPa | - | - | 0 W/m² | - |
| 1778080012 | 26.67° C | 26% | 914 hPa | - | - | 0 W/m² | - |
| 1778077890 | 27.22° C | 26% | 914 hPa | - | - | 0 W/m² | - |
| 1778075768 | 26.11° C | 27% | 914 hPa | - | - | 0 W/m² | - |
| 1778073646 | 26.67° C | 28% | 914 hPa | - | - | 0 W/m² | - |
* Rain since midnight (hover to see other rain measurements)
** Current wind speed in m/s (hover to see current wind gust speed)